Orbital elements:
    C/2007 G1 (LINEAR)
Epoch 2008 Nov. 30.0 TT = JDT 2454800.5
T 2008 Nov. 16.18491 TT                                 MPC
q   2.6468599            (2000.0)            P               Q
z  -0.0007315      Peri.  223.97886     -0.11741515     +0.15312632
 +/-0.0001312      Node    78.99928     -0.37553803     +0.90782532
e   1.0019361      Incl.   88.32711     -0.91933937     -0.39039150
Residuals in seconds of arc
070410 704  1.6+  0.1-    070419 300  0.5-  1.1+    070513 561  0.3+  0.3+
070410 704  1.2+  0.7-    070419 585  0.8-  0.0     070513 561  0.1+  0.1+
070410 704 (2.7+  0.2+)   070419 585  0.5+  0.3+    070514 355  0.3-  0.2-
070410 704 (2.3+  0.9+)   070419 585  1.2-  0.7-    070514 355  0.4-  0.3-
070410 704  0.8+  0.5+    070419 585  0.3-  0.7+    070514 355  0.1-  0.0
070410 595  0.6+  0.4-    070419 585  0.5+  0.2+    070514 355  0.3+  0.3-
070410 595  0.4-  0.2-    070420 585  0.4+  0.0     070514 355  0.0   0.4-
070410 595  0.1-  0.4-    070420 213  0.1+  0.0     070514 585  0.0   0.0
070410 595  0.0   0.0     070421 213  0.1+  0.0     070514 585  0.4+  0.0
070411 854  0.5+  0.1+    070421 213  0.0   0.1-    070514 585  0.2-  0.1+
070411 854  0.4+  0.1-    070421 850  0.3-  0.4-    070514 585  0.5+  0.1-
070411 854  0.6+  0.2-    070421 850  0.4-  0.3-    070514 585  0.1+  0.3-
070411 673  1.3-  0.4-    070421 850  0.0   0.4+    070514 561  0.6-  0.4+
070411 673  1.0-  0.2-    070421 850  0.3+  0.1-    070514 561  0.0   0.3+
070411 673  1.4+  0.7-    070422 104  0.8-  0.1+    070514 561  0.0   0.2+
070411 704  0.9+  0.9-    070422 104  0.5-  0.0     070514 561  0.1+  0.1+
070411 711  0.4-  0.5+    070422 104  0.7-  0.2+    070515 A77  0.3-  0.0
070411 673  0.4-  0.7+    070423 213  0.1+  0.1+    070515 A77  0.2-  0.5+
070411 704  0.7+  0.2+    070423 213  0.0   0.1+    070515 A77  0.4-  0.2+
070411 711  0.2-  0.3+    070423 213  0.0   0.1+    070515 A77  1.1-  1.0-
070411 711  0.0   0.3+    070425 372  1.5+  0.5-    070515 A77  1.3-  0.0
070411 704  1.3+  0.6+    070425 372  0.8+  0.6+    070515 703  0.3-  0.6-
070411 704 (2.8+  1.1+)   070425 372  1.7+  0.4+    070515 703  0.7-  0.7-
070411 704  0.4+  1.4+    070425 349  0.5-  0.1+    070515 703  0.9-  0.2-
070411 H06  0.5-  0.2-    070425 349  0.4-  0.0     070515 703  0.6-  0.1-
070411 H06  0.3+  0.0     070425 372  0.6+  0.1+    070515 662  1.3+  0.5+
070411 300  0.6-  1.1+    070426 703  1.1+  0.8-    070515 662  1.0+  0.2-
070411 E03  1.7-  1.1-    070426 703  1.6+  1.2-    070515 662  1.4+  1.1+
070411 300  0.1-  1.2+    070426 703  0.6-  0.1-    070515 662  1.6+  0.5+
070411 300  0.1-  0.5+    070426 703  0.9-  0.4-    070515 662  1.5+  0.6+
070411 A17 (3.2-  3.3+)   070426 703 (2.1-  0.1-)   070515 662  0.8+  0.1+
070411 473  0.6-  0.8+    070426 703  1.4-  0.4-    070515 662  0.8+  0.3+
070411 A17  1.4-  1.1+    070426 703  1.9-  0.3-    070515 D88  0.6+  0.2-
070411 A17  0.0   1.3-    070426 703  1.0-  0.7-    070515 D88  0.5+  0.6-
070411 113  0.3-  0.1-    070428 A33  0.6-  0.1-    070515 D88  0.5+  0.6-
070411 024  0.1+  0.4-    070429 204  0.4-  0.3-    070515 400  0.2-  0.6-
070411 024  0.2+  0.2-    070429 118  0.5-  0.2-    070515 400  0.2+  0.8-
070411 113  1.2+  0.4+    070429 118  0.1+  0.5-    070515 400  0.1+  0.1-
070411 024  0.3+  0.4-    070429 118  0.0   0.1-    070516 213  0.1-  0.2+
070412 595  0.2+  0.3-    070429 118  0.1-  0.6-    070516 213  0.2-  0.2+
070412 595  0.0   0.7-    070429 204  0.1+  0.2-    070516 B20  0.2-  0.0
070412 J95  0.0   0.2-    070429 D88  0.1-  0.8-    070516 213  0.3-  0.1+
070412 A21  0.1+  0.1+    070429 D88  0.3+  0.8-    070516 B20  0.0   0.1+
070412 A21  0.2+  0.0     070429 349  0.3-  0.2+    070516 B20  0.1+  0.2+
070412 J95  0.1+  0.3-    070429 349  0.4-  0.0     070516 A03  0.3-  0.8+
070412 J95  0.3+  0.1-    070429 349  0.5-  0.0     070516 A03  0.6+  0.5+
070412 J95  0.1+  0.3-    070429 213  0.2-  0.1-    070516 A03  0.2+  0.4+
070412 J95  0.0   0.2-    070429 213  0.1-  0.1-    070516 A03  0.0   0.0
070412 J95  0.2+  0.3-    070429 213  0.3-  0.1+    070517 D88  0.1-  0.2-
070412 850  0.2+  0.3+    070430 118  0.5-  0.9-    070517 D88  0.1+  0.4-
070412 850  0.0   0.1+    070430 118  0.1-  0.4-    070517 D88  0.0   0.2-
070412 850 (1.5+  2.2-)   070501 A33  0.3-  1.0-    070517 349  0.3-  0.1-
070412 850  0.1+  1.3-    070501 118  0.4-  0.2-    070517 349  0.1-  0.0
070412 711  0.2-  0.2+    070501 118  0.0   0.2+    070517 349  0.2-  0.1+
070412 711  0.4-  0.1+    070502 D81 (2.3-  1.6-)   070517 372  1.8+  0.2-
070412 711  0.5-  0.2+    070502 D81  0.8-  0.9-    070518 A24  0.0   0.3-
070412 561  0.1-  0.1+    070503 461  0.1+  0.1+    070518 A24  0.9-  1.4-
070412 561  0.0   0.2-    070503 461  0.0   0.0     070518 A24  0.1+  0.2-
070412 561  0.6+  0.1+    070503 461  0.2+  0.1+    070518 A24  0.2+  0.9+
070413 118  0.0   0.2-    070503 510  1.2+  0.1-    070518 A24  0.2+  0.2+
070413 118  0.1+  0.2-    070503 510 (1.1+  2.4-)   070518 A03  0.3+  0.3+
070413 118  0.1-  0.0     070503 510  1.0+  1.4-    070518 A03  0.2+  0.2+
070413 118  0.1+  0.2-    070506 213  0.2-  0.1+    070518 A03  0.1+  0.3-
070413 118  0.2-  0.1-    070506 213  0.3-  0.5-    070518 213  0.3+  0.3+
070413 850  0.1-  0.2-    070506 213  0.2+  0.0     070518 213  0.3-  0.1-
070413 850  0.1-  0.2+    070507 349  0.0   0.1-    070518 213  0.3+  0.1+
070413 850  0.6+  0.4+    070507 349  0.3-  0.2+    070519 A24  0.1-  0.5+
070413 850  0.1-  0.1-    070507 213  0.8+  0.3+    070519 A24  0.1-  0.4+
070413 A94  1.2-  0.6+    070507 213  0.6+  0.1+    070519 A24  0.2+  0.3+
070413 473  0.2-  0.4-    070507 213  0.1+  0.0     070519 A24  0.2-  0.3+
070413 A94  0.3-  0.3+    070507 A24  0.1-  0.4+    070519 A24  0.4-  0.0
070413 A94  0.1-  0.1+    070507 A24  1.4+  0.8-    070519 A24  0.3-  0.2-
070413 473  0.2+  0.1-    070508 B20  0.1+  0.4-    070519 A24  0.3-  0.1-
070414 215  0.3-  0.3-    070508 B20  0.1+  0.2+    070519 A24  0.6+  0.3-
070414 215  0.3-  0.0     070508 B20  0.1-  0.0     070519 A24  0.3+  0.0
070414 215  0.4-  0.1+    070508 A03  0.4-  0.1+    070519 372  0.1+  0.1-
070414 473  0.0   0.2-    070508 A03  0.6-  0.2+    070519 157  0.6-  0.1-
070414 473  0.1-  0.2+    070508 A03  0.2-  0.3+    070519 157  0.6-  0.4-
070415 246  0.1-  0.1+    070508 A24  0.2-  0.2+    070519 B20  0.3-  0.1+
070415 246  0.1-  0.2+    070508 A03  0.2+  0.6+    070519 B20  0.2-  0.7-
070415 246  0.2-  0.3+    070508 A24  0.2+  0.2+    070519 B20  0.5-  0.6-
070415 246  0.1-  0.2+    070509 A03  0.3-  0.6+    070521 118  0.1-  0.2-
070415 246  0.0   0.1+    070509 A03  0.7-  0.9+    070521 118  0.7-  0.3-
070415 246  0.1-  0.3+    070509 A03  0.1-  0.1+    070521 118  0.2+  0.4-
070415 246  0.1-  0.1-    070509 A24  0.5+  0.2+    070521 H47  0.1-  0.4+
070416 850  0.0   0.6-    070509 A03  0.1-  0.3+    070521 H47  0.1-  0.0
070416 850 (2.4-  0.1-)   070509 A24  0.2-  0.1+    070522 A39  0.2-  0.1+
070416 850  0.4-  0.5-    070509 A03  0.1-  0.5+    070522 A39  0.3-  0.1-
070416 850  0.2+  0.2-    070509 673  0.5+  0.5+    070522 A39  0.2-  0.3-
070416 372  0.7-  1.8+    070509 673  0.3+  0.5+    070522 372  1.6+  0.9-
070416 372  0.9-  1.7+    070509 673  0.6+  0.3+    070522 372  1.5+  0.9-
070416 372  1.1-  1.8+    070509 673  0.6+  0.5+    070522 213  0.1-  0.3+
070416 372  0.8+  1.7+    070510 213  0.1-  0.2-    070522 213  0.2-  0.7+
070416 B30  0.1-  1.6+    070510 213  0.0   0.2-    070523 J76  0.5+  0.4+
070416 B30  0.1+  0.7+    070510 213  0.1+  0.1-    070523 J76  0.3-  0.3-
070416 B30  0.2+  0.6+    070511 372  0.4-  0.6-    070523 J76  0.1+  0.3-
070416 B30  0.8+  0.2-    070511 J70 (2.0-  0.2-)   070524 213  0.7-  0.0
070417 850  0.0   0.2-    070511 J70  1.1-  0.4-    070524 213  0.1+  0.1+
070417 673  0.1+  0.2+    070511 J76  0.1+  0.1+    070524 213  0.4-  0.0
070417 673  0.2+  0.1+    070511 J76  0.2+  0.5+    070525 A24  0.5+  0.3-
070417 673  0.6+  0.4+    070511 J76  0.4+  0.2+    070525 A24  0.0   0.3+
070417 850  0.1-  0.4-    070512 104  0.2-  0.3+    070525 A24  0.2+  0.3+
070417 673  0.5+  0.4+    070512 104  0.2-  0.5+    070525 A24  0.4-  1.5+
070417 850  0.1+  0.4-    070512 104  0.4-  0.0     070525 372  1.7+  0.3+
070417 850  0.1-  0.2-    070512 104  0.1-  0.2+    070525 372  1.1+  0.7+
070417 850  0.2-  0.2-    070512 H47  0.1+  0.2+    070525 J64  0.4+  0.0
070417 A94  0.3-  0.3-    070512 H47  1.0+  0.1-    070525 J64  0.3+  0.1+
070417 A94  0.1+  0.4+    070512 157  1.0+  0.3+    070525 J64  0.4-  0.0
070417 A94  0.1-  0.2+    070512 157  0.5+  0.1-    070528 118  0.5+  0.5-
070418 400  0.6-  0.1-    070513 A24  0.1+  0.2-    070528 118  0.7-  0.1-
070418 400  0.3-  1.2+    070513 A24  0.1-  0.3+    070528 118  0.2-  0.3-
070418 400  0.8-  0.2+    070513 J67  0.1-  0.3-    070528 B20  0.3-  0.2-
070418 400  0.2+  0.2+    070513 J67  0.3-  0.5-    070528 B20  0.4-  0.3-
070418 372  0.6+  0.2+    070513 J67  0.2-  0.8-    070528 B20  1.1-  1.2-
070418 372  0.7-  0.5+    070513 A24  1.6-  1.8+    070529 J70  0.7+  0.8-
070418 B30  0.9-  0.6-    070513 A24  1.2-  1.7+    070529 J70  0.5-  1.5-
070418 B30  0.2+  0.6-    070513 213  1.5-  1.3+    070529 J70  0.1+  1.4-
070418 B30  0.1-  0.0     070513 213  0.1+  0.7+    070530 J70  0.1-  0.7-
070419 B30  1.2+  2.0-    070513 213  0.8+  0.7+    070530 J70  1.0-  0.4-
070419 A32  0.3-  0.3-    070513 A24  0.7+  0.2-    070530 J70  0.5-  1.8+
070419 A32  0.5-  0.1-    070513 A24  0.6+  0.1+    070530 J70  1.3-  0.6+
070419 A32  0.7-  0.2+    070513 A24  0.2-  0.3-    070530 J70  0.9+  1.4+
070419 300  0.1-  0.0     070513 372  0.7+  0.4-
070419 300  0.4+  1.3+    070513 561  0.3-  0.1+

     The "original" and "future" barycentric values of 1/a are +0.000167
and +0.000086 (+/- 0.000131) AU^-1, respectively.

Brian G. Marsden             (C) Copyright 2007 MPC           M.P.E.C. 2007-K77

Read MPEC 2007-K76 Read MPEC 2007-K78


Our Web policy. Index to the CBAT/MPC/ICQ pages.

